User: anonymous   Login
Location: Drayton Valley
(53.2170°N, 114.9830°W)
Time: 03:48:41
(UTC-06:00)
Language:

MOZ.5/SAFIR/RUBIN 5/SL-8 - Orbit

View from above orbital plane
View from above orbital plane
View from above satellite
View from above satellite

Ground track
Ground track

The orbit data is extracted from the following two-line orbital elements,

1 28898U 05043G   15146.10573510  .00000176  00000-0  45702-4 0  9992
2 28898 097.8454 321.8970 0020794 040.1255 320.1477 14.59901003509946
Epoch (UTC): 26 May 2015 02:32:15
Eccentricity: 0.0020794
inclination: 97.8454°
perigee height: 679 km
apogee height: 708 km
right ascension of ascending node: 321.8970°
argument of perigee: 40.1255°
revolutions per day: 14.59901003
mean anomaly at epoch: 320.1477°
orbit number at epoch: 50994

The dashed part of the orbit path shows where the satellite is in the earth's shadow,  

DLR